(67571) = 2000 SG102 = 2002 CD130

Discovered at Socorro on 2000-09-24 by LINEAR.

Orbit

Orbit type: Main Belt

Note: WebGL enabled browser required.

epoch2024-03-31.0
epoch JD2460400.5
perihelion date2022-09-28.22807
perihelion JD2459850.72807
argument of perihelion (°)357.94239
ascending node (°)318.47122
inclination (°)1.66295
eccentricity0.1603531
perihelion distance (AU)1.8193242
Tisserand w.r.t. Jupiter3.7
ΔV w.r.t. Earth (km/sec)8.3
semimajor axis (AU)2.1667730
mean anomaly (°)169.88940
mean daily motion (°/day)0.30901800
aphelion distance (AU)2.514
period (years)3.19
P-vector [x]0.72434575
P-vector [y]-0.63213080
P-vector [z]-0.27519789
Q-vector [x]0.68916837
Q-vector [y]0.65273992
Q-vector [z]0.31460696
absolute magnitude17.17
phase slope0.15
uncertainty0
referenceMPEC 2024-C93
observations used537
oppositions19
arc length (days)11223
first opposition used1993
last opposition used2024
residual rms (arc-secs)0.68
perturbers coarse indicatorM-v
perturbers precise indicator003Ek
first observation date used1993-05-18.0
last observation date used2024-02-08.0
computer nameMPCLINUX
JD of orbit computation2456700.496710
perihelion JD uncertainty (days)6.2011E-05
argument of perihelion uncertainty (°)1.6760E-04
ascending node uncertainty (°)1.6684E-04
inclination uncertainty (°)5.0968E-06
eccentricity uncertainty 5.0461E-08
perihelion distance uncertainty (AU)1.0662E-07
Minimum Orbit Intersection Distances (in AU)
for orbit epoch: 2460400.5, reference: E2024-GD4
Mercury1.39186
Venus1.09262
Earth0.80555
Mars0.42584
Jupiter2.74245
Saturn6.60137
Uranus15.9584
Neptune27.6165

Observations

552 total observations over interval: 1993 05 18.19916 – 2024 02 08.290889
These data are available for download (format description).

Date (UT) J2000 RA J2000 Dec Magn Location Ref
1993 05 18.19916 14 07 42.23 -16 10 46.4   691 – Steward Observatory, Kitt Peak-Spacewatch MPS 51981
1993 05 18.22159 14 07 40.96 -16 10 39.9   691 – Steward Observatory, Kitt Peak-Spacewatch MPS 51981
1993 05 18.24392 14 07 39.74 -16 10 33.3 20.1 V 691 – Steward Observatory, Kitt Peak-Spacewatch MPS 51981
1996 03 17.44165 12 53 53.64 -08 05 11.4 20.4 V 691 – Steward Observatory, Kitt Peak-Spacewatch MPS 79765
1996 03 17.46490 12 53 52.33 -08 05 05.0 20.6 V 691 – Steward Observatory, Kitt Peak-Spacewatch MPS 79765
1996 03 17.48625 12 53 51.19 -08 04 59.2 20.3 V 691 – Steward Observatory, Kitt Peak-Spacewatch MPS 79765
1999 02 24.38069 11 27 31.62 +02 10 47.4 21.2 V 691 – Steward Observatory, Kitt Peak-Spacewatch MPS 79765
1999 02 24.40163 11 27 30.53 +02 10 52.9 21.6 V 691 – Steward Observatory, Kitt Peak-Spacewatch MPS 79765
1999 02 24.42269 11 27 29.31 +02 10 58.9 21.5 V 691 – Steward Observatory, Kitt Peak-Spacewatch MPS 79765
1999 03 21.27035 11 02 13.29 +04 33 45.0 20.7 V 691 – Steward Observatory, Kitt Peak-Spacewatch MPS 51981
1999 03 21.29248 11 02 11.99 +04 33 52.7 20.3 V 691 – Steward Observatory, Kitt Peak-Spacewatch MPS 51981
1999 03 21.31388 11 02 10.28 +04 33 56.3 18.9 V 691 – Steward Observatory, Kitt Peak-Spacewatch MPS 51981
2000 09 24.33693 00 39 49.70 +07 04 02.7 18.8   704 – Lincoln Laboratory ETS, New Mexico MPS 19932
2000 09 24.35182 00 39 48.82 +07 03 59.2 18.5   704 – Lincoln Laboratory ETS, New Mexico MPS 19932
2000 09 24.36706 00 39 47.87 +07 03 54.2 18.6   704 – Lincoln Laboratory ETS, New Mexico MPS 19932
2000 09 24.38202 00 39 47.05 +07 03 49.8 18.7   704 – Lincoln Laboratory ETS, New Mexico MPS 19932
2000 09 24.39700 00 39 46.10 +07 03 45.7 18.9   704 – Lincoln Laboratory ETS, New Mexico MPS 19932
2000 09 26.32510 00 37 53.30 +06 53 59.0 18.6 R 699 – Lowell Observatory-LONEOS MPS 26676
2000 09 26.34354 00 37 52.12 +06 53 52.7   699 – Lowell Observatory-LONEOS MPS 26676
2000 09 26.36200 00 37 50.99 +06 53 47.9   699 – Lowell Observatory-LONEOS MPS 26676
2000 09 26.38041 00 37 49.82 +06 53 41.3   699 – Lowell Observatory-LONEOS MPS 26676
2000 09 27.25653 00 36 58.28 +06 49 08.1 18.9   704 – Lincoln Laboratory ETS, New Mexico MPS 19932
2000 09 27.27163 00 36 57.37 +06 49 02.9 18.7   704 – Lincoln Laboratory ETS, New Mexico MPS 19932
2000 09 27.28670 00 36 56.46 +06 48 58.2 19.0   704 – Lincoln Laboratory ETS, New Mexico MPS 19932
2000 09 27.30178 00 36 55.47 +06 48 52.7 19.5   704 – Lincoln Laboratory ETS, New Mexico MPS 19932
2000 09 27.31687 00 36 54.58 +06 48 48.2 18.6   704 – Lincoln Laboratory ETS, New Mexico MPS 19932
2000 10 01.30863 00 32 56.96 +06 27 17.1 18.3 R 699 – Lowell Observatory-LONEOS MPS 21215
2000 10 01.32858 00 32 55.73 +06 27 09.5   699 – Lowell Observatory-LONEOS MPS 21215
2000 10 01.34858 00 32 54.44 +06 27 02.5   699 – Lowell Observatory-LONEOS MPS 21215
2000 10 01.36861 00 32 53.27 +06 26 56.9   699 – Lowell Observatory-LONEOS MPS 21215
2000 10 02.30311 00 31 57.93 +06 21 45.8 19.1   704 – Lincoln Laboratory ETS, New Mexico MPS 19932
2000 10 02.31869 00 31 56.98 +06 21 40.9 19.0   704 – Lincoln Laboratory ETS, New Mexico MPS 19932
2000 10 02.33486 00 31 55.89 +06 21 34.0 19.4   704 – Lincoln Laboratory ETS, New Mexico MPS 19932
2000 10 02.35036 00 31 54.99 +06 21 29.5 19.2   704 – Lincoln Laboratory ETS, New Mexico MPS 19932
2000 10 02.36597 00 31 54.03 +06 21 24.7 19.0   704 – Lincoln Laboratory ETS, New Mexico MPS 19932
2000 11 02.10760 00 10 42.56 +04 04 51.7 20.1 V 691 – Steward Observatory, Kitt Peak-Spacewatch MPS 21215
2000 11 02.12835 00 10 42.20 +04 04 49.0 20.0 V 691 – Steward Observatory, Kitt Peak-Spacewatch MPS 21215
2000 11 02.14918 00 10 41.86 +04 04 46.5 19.9 V 691 – Steward Observatory, Kitt Peak-Spacewatch MPS 21215
2002 02 07.27289 10 05 31.94 +11 24 48.3 20.5   644 – Palomar Mountain/NEAT MPS 51981
2002 02 07.33410 10 05 27.91 +11 25 06.2 20.1   704 – Lincoln Laboratory ETS, New Mexico MPS 50309
2002 02 07.34895 10 05 27.06 +11 25 11.0 20.2   644 – Palomar Mountain/NEAT MPS 51981
2002 02 07.36286 10 05 26.12 +11 25 15.1 20.2   704 – Lincoln Laboratory ETS, New Mexico MPS 50309
2002 02 07.37745 10 05 25.19 +11 25 19.8 20.3   704 – Lincoln Laboratory ETS, New Mexico MPS 50309
2002 02 07.41864 10 05 22.59 +11 25 31.7 20.5   644 – Palomar Mountain/NEAT MPS 51981
2002 02 09.27821 10 03 25.98 +11 34 49.3 21.0 V 691 – Steward Observatory, Kitt Peak-Spacewatch MPS 51981
2002 02 09.29938 10 03 24.58 +11 34 55.6 21.0 V 691 – Steward Observatory, Kitt Peak-Spacewatch MPS 51981
2002 02 09.32055 10 03 23.18 +11 35 02.3 21.0 V 691 – Steward Observatory, Kitt Peak-Spacewatch MPS 51981
2002 02 11.30806 10 01 15.95 +11 45 06.5 20.0   704 – Lincoln Laboratory ETS, New Mexico MPS 50309
2002 02 11.32230 10 01 14.92 +11 45 10.8 20.5   704 – Lincoln Laboratory ETS, New Mexico MPS 50309
2002 02 11.33654 10 01 14.02 +11 45 14.8 20.4   704 – Lincoln Laboratory ETS, New Mexico MPS 50309
2002 02 11.35078 10 01 13.00 +11 45 19.9 20.3   704 – Lincoln Laboratory ETS, New Mexico MPS 50309
2002 02 11.36505 10 01 12.02 +11 45 24.4 20.4   704 – Lincoln Laboratory ETS, New Mexico MPS 50309
2002 03 06.11111 09 37 25.93 +13 34 17.1 21.6 V 691 – Steward Observatory, Kitt Peak-Spacewatch MPS 51981
2002 03 06.13335 09 37 24.70 +13 34 22.9 21.3 V 691 – Steward Observatory, Kitt Peak-Spacewatch MPS 51981
2002 03 06.15526 09 37 23.48 +13 34 28.0 21.2 V 691 – Steward Observatory, Kitt Peak-Spacewatch MPS 51981
2003 07 22.56213 21 44 02.69 -14 11 14.4 19.3   608 – Haleakala-AMOS MPS 82269
2003 07 22.57257 21 44 02.28 -14 11 15.3 19.4   608 – Haleakala-AMOS MPS 82269
2003 07 22.58298 21 44 01.87 -14 11 15.8 19.5   608 – Haleakala-AMOS MPS 82269
2003 07 25.31595 21 42 20.39 -14 15 35.4 18.4   704 – Lincoln Laboratory ETS, New Mexico MPS 82386
2003 07 25.32746 21 42 19.91 -14 15 36.1 19.2   704 – Lincoln Laboratory ETS, New Mexico MPS 82386
2003 07 25.33778 21 42 19.40 -14 15 36.3 18.4   704 – Lincoln Laboratory ETS, New Mexico MPS 82386
2003 07 25.34819 21 42 18.99 -14 15 38.6 18.6   704 – Lincoln Laboratory ETS, New Mexico MPS 82386
2003 07 25.35828 21 42 18.54 -14 15 39.2 18.9   704 – Lincoln Laboratory ETS, New Mexico MPS 82386
2003 08 04.28724 21 34 30.32 -14 37 41.1 18.5   704 – Lincoln Laboratory ETS, New Mexico MPS 82632
2003 08 04.30821 21 34 29.14 -14 37 44.1 18.6   704 – Lincoln Laboratory ETS, New Mexico MPS 82632
2003 08 04.31868 21 34 28.62 -14 37 46.2 18.6   704 – Lincoln Laboratory ETS, New Mexico MPS 82632
2003 08 04.32906 21 34 27.97 -14 37 47.1 18.6   704 – Lincoln Laboratory ETS, New Mexico MPS 82632
2003 08 22.27351 21 18 01.11 -15 24 09.4 18.1   704 – Lincoln Laboratory ETS, New Mexico MPS 83262
2003 08 22.28598 21 18 00.50 -15 24 10.8 18.3   704 – Lincoln Laboratory ETS, New Mexico MPS 83262
2003 08 22.29858 21 17 59.75 -15 24 13.1 18.6   704 – Lincoln Laboratory ETS, New Mexico MPS 83262
2003 08 25.26666 21 15 33.01 -15 30 25.4 17.9   704 – Lincoln Laboratory ETS, New Mexico MPS 83262
2003 08 25.27903 21 15 32.40 -15 30 26.6 18.1   704 – Lincoln Laboratory ETS, New Mexico MPS 83262
2003 08 25.29166 21 15 31.73 -15 30 28.5 18.6   704 – Lincoln Laboratory ETS, New Mexico MPS 83262
2003 08 25.30444 21 15 31.11 -15 30 29.6 18.4   704 – Lincoln Laboratory ETS, New Mexico MPS 83262
2003 08 25.31681 21 15 30.46 -15 30 30.8 18.8   704 – Lincoln Laboratory ETS, New Mexico MPS 83262
2003 08 31.21139 21 11 17.20 -15 40 12.8 18.2   704 – Lincoln Laboratory ETS, New Mexico MPS 83967
2003 08 31.23502 21 11 16.24 -15 40 14.7 18.6   704 – Lincoln Laboratory ETS, New Mexico MPS 83967
2003 08 31.24682 21 11 15.72 -15 40 14.6 18.5   704 – Lincoln Laboratory ETS, New Mexico MPS 83967
2003 08 31.25863 21 11 15.24 -15 40 16.6 18.6   704 – Lincoln Laboratory ETS, New Mexico MPS 83967
2003 09 04.15626 21 09 02.25 -15 44 24.4 19.5 V 691 – Steward Observatory, Kitt Peak-Spacewatch MPS 83967
2003 09 04.18537 21 09 01.27 -15 44 25.8 19.2 V 691 – Steward Observatory, Kitt Peak-Spacewatch MPS 83967
2003 09 04.21438 21 09 00.27 -15 44 26.8 20.1 V 691 – Steward Observatory, Kitt Peak-Spacewatch MPS 83967
2003 09 29.10674 21 07 53.44 -15 22 23.0 19.2   704 – Lincoln Laboratory ETS, New Mexico MPS 86826
